Budapest Ferihegy, Hungary

12:24 AM CEST on October 19, 2018 (GMT +0200)
Ferihegy

Weather History for LHBP - February, 2018

Change the Weather History Date:

Wednesday, February 14, 2018

  Actual Average Record
Temperature  
Mean Temperature 34 °F -  
Max Temperature 35 °F 44 °F 57 °F (1998)
Min Temperature 32 °F 27 °F 0 °F (2003)
Degree Days  
Heating Degree Days 32    
Moisture  
Dew Point 33 °F    
Average Humidity 98    
Maximum Humidity 100    
Minimum Humidity 93    
Precipitation  
Precipitation 0.00 in - - ()
Sea Level Pressure  
Sea Level Pressure 29.92 in    
Wind  
Wind Speed 7 mph ()    
Max Wind Speed 12 mph    
Max Gust Speed -    
Visibility 3.3 miles    
Events Rain , Snow    
Averages and records for this station are not official NWS values.
T = Trace of Precipitation, MM = Missing Value Source: Averaged Metar Reports

Daily Weather History Graph

Daily Weather History Graph

Search for Another Location

Airport or City:

Astronomy

Feb. 14, 2018 Rise Set
Actual Time 6:50 AM CET 5:04 PM CET
Civil Twilight 6:18 AM CET 5:36 PM CET
Nautical Twilight 5:42 AM CET 6:12 PM CET
Astronomical Twilight 5:07 AM CET 6:47 PM CET
Moon 6:04 AM CET (2/14) 3:43 PM CET (2/14)
Length of Visible Light 11h 17m
Length of Day
10h 14m
Waning Crescent, 2% of the Moon is Illuminated
Feb 14
Waning Crescent
Feb 15
New
Feb 23
First Quarter
Mar 2
Full
Mar 9
Last Quarter

Hourly Weather History & Observations

Time (CET) Temp. Windchill Dew Point Humidity Pressure Visibility Wind Dir Wind Speed Gust Speed Precip Events Conditions
12:00 AM 33.8 °F 27.0 °F 33.8 °F 100% 29.86 in 5.0 mi NNE 8.1 mph - N/A Snow Light Snow
12:30 AM 33.8 °F 27.7 °F 33.8 °F 100% 29.86 in 5.0 mi North 6.9 mph - N/A Snow Light Snow
1:00 AM 33.8 °F 27.7 °F 33.8 °F 100% 29.86 in 3.7 mi North 6.9 mph - N/A Snow Snow
1:30 AM 33.8 °F 27.0 °F 33.8 °F 100% 29.86 in 3.7 mi North 8.1 mph - N/A Snow Light Snow
2:00 AM 33.8 °F 27.7 °F 33.8 °F 100% 29.86 in 3.7 mi North 6.9 mph - N/A Snow Light Snow
2:30 AM 33.8 °F 27.0 °F 33.8 °F 100% 29.83 in 3.7 mi North 8.1 mph - N/A Snow Light Snow
3:00 AM 33.8 °F 27.0 °F 33.8 °F 100% 29.83 in 3.7 mi North 8.1 mph - N/A Snow Light Snow
3:30 AM 33.8 °F 27.7 °F 33.8 °F 100% 29.83 in 5.0 mi North 6.9 mph - N/A Rain , Snow Light Rain
4:00 AM 33.8 °F 27.7 °F 32.0 °F 93% 29.83 in 3.1 mi NNW 6.9 mph - N/A Snow Light Snow
4:30 AM 32.0 °F 25.6 °F 32.0 °F 100% 29.83 in 2.5 mi NNW 6.9 mph - N/A Snow Light Snow
5:00 AM 33.8 °F 27.7 °F 33.8 °F 100% 29.83 in 2.5 mi North 6.9 mph - N/A Snow Light Snow
5:30 AM 33.8 °F 28.6 °F 32.0 °F 93% 29.83 in 2.5 mi North 5.8 mph - N/A Snow Light Snow
6:00 AM 33.8 °F 27.7 °F 33.8 °F 100% 29.83 in 2.2 mi North 6.9 mph - N/A Snow Light Snow
6:30 AM 32.0 °F 25.6 °F 32.0 °F 100% 29.86 in 1.9 mi North 6.9 mph - N/A Snow Light Snow
6:45 AM 32.0 °F 24.8 °F 32.0 °F 100% 29.86 in 1.2 mi North 8.1 mph - N/A Snow Light Snow
7:00 AM 33.8 °F 27.0 °F 32.0 °F 93% 29.86 in 1.1 mi North 8.1 mph - N/A Snow Light Snow
7:30 AM 32.0 °F 25.6 °F 32.0 °F 100% 29.86 in 1.1 mi North 6.9 mph - N/A Snow Light Snow
8:00 AM 32.0 °F 25.6 °F 32.0 °F 100% 29.86 in 1.1 mi North 6.9 mph - N/A Snow Light Snow
8:30 AM 32.0 °F 25.6 °F 32.0 °F 100% 29.89 in 1.1 mi NNW 6.9 mph - N/A Snow Light Snow
9:00 AM 32.0 °F 24.8 °F 32.0 °F 100% 29.89 in 1.0 mi NNW 8.1 mph - N/A Snow Light Snow
9:07 AM 33.8 °F 28.6 °F 33.8 °F 100% 29.89 in 0.9 mi North 5.8 mph - N/A Snow Snow
9:30 AM 32.0 °F 25.6 °F 32.0 °F 100% 29.89 in 0.9 mi North 6.9 mph - N/A Snow Snow
10:00 AM 32.0 °F 25.6 °F 32.0 °F 100% 29.89 in 1.1 mi North 6.9 mph - N/A Snow Light Snow
10:30 AM 33.8 °F 27.7 °F 33.8 °F 100% 29.92 in 1.2 mi NNW 6.9 mph - N/A Snow Light Snow
11:00 AM 33.8 °F 26.4 °F 33.8 °F 100% 29.92 in 1.9 mi NNW 9.2 mph - N/A Snow Light Snow
11:30 AM 35.6 °F 28.6 °F 33.8 °F 93% 29.92 in 2.2 mi North 9.2 mph - N/A Snow Light Snow
12:00 PM 35.6 °F 28.0 °F 35.6 °F 100% 29.92 in 3.1 mi NNW 10.4 mph - N/A Snow Light Snow
12:30 PM 35.6 °F 28.0 °F 35.6 °F 100% 29.92 in 5.0 mi NNW 10.4 mph - N/A Snow Light Snow
1:00 PM 35.6 °F 27.5 °F 33.8 °F 93% 29.92 in 5.6 mi North 11.5 mph - N/A Snow Light Snow
1:30 PM 35.6 °F 28.0 °F 33.8 °F 93% 29.92 in 5.6 mi NNW 10.4 mph - N/A Snow Light Snow
1:39 PM 35.6 °F 28.0 °F 33.8 °F 93% 29.92 in 3.1 mi NNW 10.4 mph - N/A Snow Light Snow
2:30 PM 35.6 °F 28.6 °F 33.8 °F 93% 29.92 in 3.7 mi NNW 9.2 mph - N/A Snow Light Snow
3:00 PM 35.6 °F 28.6 °F 33.8 °F 93% 29.92 in 4.3 mi NNW 9.2 mph - N/A Rain Rain
3:30 PM 35.6 °F 28.6 °F 33.8 °F 93% 29.95 in 5.0 mi NW 9.2 mph - N/A Rain , Snow Light Rain
4:00 PM 35.6 °F 29.9 °F 33.8 °F 93% 29.95 in 5.0 mi NNW 6.9 mph - N/A Rain , Snow Light Rain
4:30 PM 35.6 °F 29.9 °F 33.8 °F 93% 29.95 in 5.0 mi NW 6.9 mph - N/A Rain , Snow Light Rain
5:00 PM 35.6 °F 29.9 °F 33.8 °F 93% 29.95 in 5.0 mi NW 6.9 mph - N/A Rain Light Rain
5:30 PM 35.6 °F 29.2 °F 33.8 °F 93% 29.98 in 5.0 mi NW 8.1 mph - N/A   Mostly Cloudy
6:00 PM 33.8 °F 28.6 °F 33.8 °F 100% 29.98 in 5.0 mi WNW 5.8 mph - N/A Rain , Snow Light Rain
6:30 PM 33.8 °F 27.7 °F 33.8 °F 100% 29.98 in 4.3 mi WNW 6.9 mph - N/A Rain Rain
7:00 PM 33.8 °F 27.0 °F 33.8 °F 100% 29.98 in 4.3 mi NW 8.1 mph - N/A Rain Rain
7:30 PM 33.8 °F 27.7 °F 33.8 °F 100% 30.01 in 5.0 mi WNW 6.9 mph - N/A   Overcast
8:00 PM 32.0 °F 26.4 °F 32.0 °F 100% 30.01 in 5.0 mi WNW 5.8 mph - N/A   Overcast
8:30 PM 33.8 °F 28.6 °F 32.0 °F 93% 30.01 in 5.0 mi NW 5.8 mph - N/A   Mostly Cloudy
9:00 PM 32.0 °F 26.4 °F 32.0 °F 100% 30.01 in 5.0 mi NW 5.8 mph - N/A   Overcast
9:11 PM 32.0 °F 27.5 °F 32.0 °F 100% 30.01 in 3.7 mi NW 4.6 mph - N/A   Partly Cloudy
9:30 PM 32.0 °F 26.4 °F 32.0 °F 100% 30.04 in 3.1 mi NNW 5.8 mph - N/A   Mostly Cloudy
10:00 PM 32.0 °F - 32.0 °F 100% 30.04 in 3.1 mi Variable 2.3 mph - N/A   Mostly Cloudy
10:30 PM 32.0 °F 28.7 °F 32.0 °F 100% 30.04 in 2.5 mi Variable 3.5 mph - N/A   Mostly Cloudy
11:00 PM 32.0 °F - 32.0 °F 100% 30.04 in 2.5 mi Calm Calm - N/A   Mostly Cloudy
11:30 PM 32.0 °F 28.7 °F 32.0 °F 100% 30.04 in 2.5 mi Variable 3.5 mph - N/A   Overcast